Погода в Третьяках

Россия / Брянская область     53°02′49″N   33°23′59″E
темп.,
°C
ветер,
м/с
пор.,
м/с
влажн.,
%
обл.,
%
осадки,
мм/ч
давл.,
гПа
погр.,
м
5 августа, чт
чт500:00+16юв3366100 0.0 101736
03:00+15юв3870100 0.0 1016125
06:00+15ю2277100 0.3 101678
09:00+15вюв3889100 0.9 1015227
12:00+22ю6857100 0.1 1013998
15:00+25ююз5850100 0.1 10122095
18:00+23ююв2465100 0.0 1011142
21:00+20юв117592 0.1 101111
6 августа, пт
пт600:00+17ю3892100 0.1 1011146
03:00+17ююв2594100 0.1 1010117
06:00+17юв389775 1.3 1009222
09:00+19ююв41189100 1.6 1008402
12:00+24ю4963100 0.3 1007857
15:00+26ссз215994 0.3 1006394
18:00+25св4666100 0.1 1004188
21:00+18с469760 0.7 1005127
7 августа, сб
сб700:00+19в1291100 0.4 100428
03:00+18зюз1194100 2.1 100416
06:00+17ююв3496100 0.1 1006149
09:00+20зюз349097 0.7 1007416
12:00+22з3373100 0.0 1008873
15:00+23з346287 0.1 10081278
18:00+21з3770100 0.0 1010374
21:00+17з4107635 0.0 1011229
8 августа, вс
вс800:00+14сз2282100 0.0 101322
03:00+13сз228595 0.0 101411
06:00+13з22830 0.0 101513
09:00+19зсз34620 0.0 1015434
12:00+23зсз34500 0.0 10161153
15:00+25зсз33410 0.0 10161537
18:00+25зсз22460 0.0 10161454
21:00+18с11655 0.0 101811
9 августа, пн
пн900:00+16всв11722 0.0 101811
03:00+15юв11761 0.0 101911
06:00+14юв22775 0.0 101917
09:00+21ююв23575 0.0 1019314
12:00+25ююв22435 0.0 10181106
15:00+27ююз12362 0.0 10181492
18:00+27ююв114231 0.0 10171345
21:00+20ю225712 0.0 101811